User: anonymous   Login
Location: Unspecified
(0.0000°N, 0.0000°E)
Time: 02:29:02
(UTC+02:00)
Language:

Cosmos 1892 Rocket - Orbit

View from above orbital plane
View from above orbital plane
View from above satellite
View from above satellite

Ground track
Ground track

The orbit data is extracted from the following two-line orbital elements,

1 18422U 87088B   18111.50943905 +.00000093 +00000-0 +84273-5 0  9996
2 18422 082.5118 247.9483 0020583 140.3243 264.5887 14.82966989626428
Epoch (UTC): 21 April 2018 12:13:35
Eccentricity: 0.0020583
inclination: 82.5118°
perigee height: 605 km
apogee height: 634 km
right ascension of ascending node: 247.9483°
argument of perigee: 140.3243°
revolutions per day: 14.82966989
mean anomaly at epoch: 264.5887°
orbit number at epoch: 62642

The dashed part of the orbit path shows where the satellite is in the earth's shadow,  

DLR